Year,Month,Day,Hour,Minute,Value (Times are PST for barometer in hPa)
2010,06,04,00,00,1006.44
2010,06,04,00,01,1006.40
2010,06,04,00,02,1006.37
2010,06,04,00,03,1006.30
2010,06,04,00,04,1006.33
2010,06,04,00,05,1006.30
2010,06,04,00,06,1006.30
2010,06,04,00,07,1006.30
2010,06,04,00,08,1006.30
2010,06,04,00,09,1006.27
2010,06,04,00,10,1006.30
2010,06,04,00,11,1006.30
2010,06,04,00,12,1006.27
2010,06,04,00,13,1006.29
2010,06,04,00,14,1006.20
2010,06,04,00,15,1006.20
2010,06,04,00,16,1006.13
2010,06,04,00,17,1006.16
2010,06,04,00,18,1006.13
2010,06,04,00,19,1006.10
2010,06,04,00,20,1006.10
2010,06,04,00,21,1006.03
2010,06,04,00,22,1006.03
2010,06,04,00,23,1005.96
2010,06,04,00,24,1005.99
2010,06,04,00,25,1005.96
2010,06,04,00,26,1005.99
2010,06,04,00,27,1005.93
2010,06,04,00,28,1005.93
2010,06,04,00,29,1005.86
2010,06,04,00,30,1005.86
2010,06,04,00,31,1005.83
2010,06,04,00,32,1005.83
2010,06,04,00,33,1005.83
2010,06,04,00,34,1005.79
2010,06,04,00,35,1005.79
2010,06,04,00,36,1005.76
2010,06,04,00,37,1005.72
2010,06,04,00,38,1005.69
2010,06,04,00,39,1005.62
2010,06,04,00,40,1005.59
2010,06,04,00,41,1005.55
2010,06,04,00,42,1005.55
2010,06,04,00,43,1005.55
2010,06,04,00,44,1005.52
2010,06,04,00,45,1005.55
2010,06,04,00,46,1005.52
2010,06,04,00,47,1005.45
2010,06,04,00,48,1005.45
2010,06,04,00,49,1005.45
2010,06,04,00,50,1005.42
2010,06,04,00,51,1005.35
2010,06,04,00,52,1005.32
2010,06,04,00,53,1005.28
2010,06,04,00,54,1005.28
2010,06,04,00,55,1005.25
2010,06,04,00,56,1005.25
2010,06,04,00,57,1005.22
2010,06,04,00,58,1005.15
2010,06,04,00,59,1005.18
2010,06,04,01,00,1005.18
2010,06,04,01,01,1005.22
2010,06,04,01,02,1005.18
2010,06,04,01,03,1005.25
2010,06,04,01,04,1005.22
2010,06,04,01,05,1005.25
2010,06,04,01,06,1005.28
2010,06,04,01,07,1005.25
2010,06,04,01,08,1005.25
2010,06,04,01,09,1005.25
2010,06,04,01,10,1005.18
2010,06,04,01,11,1005.22
2010,06,04,01,12,1005.22
2010,06,04,01,13,1005.28
2010,06,04,01,14,1005.25
2010,06,04,01,15,1005.25
2010,06,04,01,16,1005.28
2010,06,04,01,17,1005.25
2010,06,04,01,18,1005.22
2010,06,04,01,19,1005.26
2010,06,04,01,20,1005.35
2010,06,04,01,21,1005.39
2010,06,04,01,22,1005.35
2010,06,04,01,23,1005.39
2010,06,04,01,24,1005.39
2010,06,04,01,25,1005.39
2010,06,04,01,26,1005.39
2010,06,04,01,27,1005.35
2010,06,04,01,28,1005.35
2010,06,04,01,29,1005.39
2010,06,04,01,30,1005.35
2010,06,04,01,31,1005.32
2010,06,04,01,32,1005.32
2010,06,04,01,33,1005.32
2010,06,04,01,34,1005.35
2010,06,04,01,35,1005.39
2010,06,04,01,36,1005.39
2010,06,04,01,37,1005.39
2010,06,04,01,38,1005.39
2010,06,04,01,39,1005.39
2010,06,04,01,40,1005.35
2010,06,04,01,41,1005.39
2010,06,04,01,42,1005.39
2010,06,04,01,43,1005.39
2010,06,04,01,44,1005.42
2010,06,04,01,45,1005.42
2010,06,04,01,46,1005.39
2010,06,04,01,47,1005.35
2010,06,04,01,48,1005.39
2010,06,04,01,49,1005.45
2010,06,04,01,50,1005.45
2010,06,04,01,51,1005.45
2010,06,04,01,52,1005.45
2010,06,04,01,53,1005.39
2010,06,04,01,54,1005.42
2010,06,04,01,55,1005.35
2010,06,04,01,56,1005.32
2010,06,04,01,57,1005.35
2010,06,04,01,58,1005.35
2010,06,04,01,59,1005.32
2010,06,04,02,00,1005.28
2010,06,04,02,01,1005.32
2010,06,04,02,02,1005.32
2010,06,04,02,03,1005.28
2010,06,04,02,04,1005.28
2010,06,04,02,05,1005.28
2010,06,04,02,06,1005.25
2010,06,04,02,07,1005.18
2010,06,04,02,08,1005.18
2010,06,04,02,09,1005.15
2010,06,04,02,10,1005.15
2010,06,04,02,11,1005.15
2010,06,04,02,12,1005.15
2010,06,04,02,13,1005.11
2010,06,04,02,14,1005.08
2010,06,04,02,15,1005.05
2010,06,04,02,16,1005.08
2010,06,04,02,17,1005.11
2010,06,04,02,18,1005.08
2010,06,04,02,19,1005.08
2010,06,04,02,20,1005.08
2010,06,04,02,21,1005.08
2010,06,04,02,22,1005.01
2010,06,04,02,23,1005.05
2010,06,04,02,24,1005.05
2010,06,04,02,25,1005.08
2010,06,04,02,26,1005.11
2010,06,04,02,27,1005.08
2010,06,04,02,28,1005.08
2010,06,04,02,29,1005.01
2010,06,04,02,30,1005.05
2010,06,04,02,31,1005.08
2010,06,04,02,32,1005.05
2010,06,04,02,33,1005.05
2010,06,04,02,34,1005.05
2010,06,04,02,35,1005.05
2010,06,04,02,36,1005.05
2010,06,04,02,37,1005.05
2010,06,04,02,38,1004.98
2010,06,04,02,39,1004.95
2010,06,04,02,40,1004.95
2010,06,04,02,41,1004.95
2010,06,04,02,42,1004.95
2010,06,04,02,43,1004.91
2010,06,04,02,44,1004.88
2010,06,04,02,45,1004.88
2010,06,04,02,46,1004.84
2010,06,04,02,47,1004.88
2010,06,04,02,48,1004.84
2010,06,04,02,49,1004.84
2010,06,04,02,50,1004.84
2010,06,04,02,51,1004.81
2010,06,04,02,52,1004.78
2010,06,04,02,53,1004.78
2010,06,04,02,54,1004.78
2010,06,04,02,55,1004.71
2010,06,04,02,56,1004.67
2010,06,04,02,57,1004.67
2010,06,04,02,58,1004.67
2010,06,04,02,59,1004.71
2010,06,04,03,00,1004.71
2010,06,04,03,01,1004.71
2010,06,04,03,02,1004.71
2010,06,04,03,03,1004.67
2010,06,04,03,04,1004.71
2010,06,04,03,05,1004.71
2010,06,04,03,06,1004.71
2010,06,04,03,07,1004.71
2010,06,04,03,08,1004.71
2010,06,04,03,09,1004.67
2010,06,04,03,10,1004.67
2010,06,04,03,11,1004.64
2010,06,04,03,12,1004.61
2010,06,04,03,13,1004.57
2010,06,04,03,14,1004.57
2010,06,04,03,15,1004.50
2010,06,04,03,16,1004.57
2010,06,04,03,17,1004.54
2010,06,04,03,18,1004.47
2010,06,04,03,19,1004.50
2010,06,04,03,20,1004.50
2010,06,04,03,21,1004.47
2010,06,04,03,22,1004.50
2010,06,04,03,23,1004.44
2010,06,04,03,24,1004.44
2010,06,04,03,25,1004.44
2010,06,04,03,26,1004.47
2010,06,04,03,27,1004.40
2010,06,04,03,28,1004.44
2010,06,04,03,29,1004.37
2010,06,04,03,30,1004.40
2010,06,04,03,31,1004.40
2010,06,04,03,32,1004.40
2010,06,04,03,33,1004.37
2010,06,04,03,34,1004.37
2010,06,04,03,35,1004.40
2010,06,04,03,36,1004.37
2010,06,04,03,37,1004.34
2010,06,04,03,38,1004.34
2010,06,04,03,39,1004.30
2010,06,04,03,40,1004.34
2010,06,04,03,41,1004.34
2010,06,04,03,42,1004.34
2010,06,04,03,43,1004.37
2010,06,04,03,44,1004.37
2010,06,04,03,45,1004.37
2010,06,04,03,46,1004.44
2010,06,04,03,47,1004.40
2010,06,04,03,48,1004.40
2010,06,04,03,49,1004.40
2010,06,04,03,50,1004.40
2010,06,04,03,51,1004.44
2010,06,04,03,52,1004.44
2010,06,04,03,53,1004.40
2010,06,04,03,54,1004.40
2010,06,04,03,55,1004.40
2010,06,04,03,56,1004.37
2010,06,04,03,57,1004.40
2010,06,04,03,58,1004.40
2010,06,04,03,59,1004.40
2010,06,04,04,00,1004.40
2010,06,04,04,01,1004.40
2010,06,04,04,02,1004.37
2010,06,04,04,03,1004.40
2010,06,04,04,04,1004.37
2010,06,04,04,05,1004.40
2010,06,04,04,06,1004.44
2010,06,04,04,07,1004.40
2010,06,04,04,08,1004.44
2010,06,04,04,09,1004.47
2010,06,04,04,10,1004.47
2010,06,04,04,11,1004.47
2010,06,04,04,12,1004.50
2010,06,04,04,13,1004.47
2010,06,04,04,14,1004.47
2010,06,04,04,15,1004.50
2010,06,04,04,16,1004.47
2010,06,04,04,17,1004.47
2010,06,04,04,18,1004.47
2010,06,04,04,19,1004.47
2010,06,04,04,20,1004.47
2010,06,04,04,21,1004.44
2010,06,04,04,22,1004.44
2010,06,04,04,23,1004.44
2010,06,04,04,24,1004.40
2010,06,04,04,25,1004.47
2010,06,04,04,26,1004.47
2010,06,04,04,27,1004.44
2010,06,04,04,28,1004.47
2010,06,04,04,29,1004.47
2010,06,04,04,30,1004.47
2010,06,04,04,31,1004.50
2010,06,04,04,32,1004.50
2010,06,04,04,33,1004.50
2010,06,04,04,34,1004.50
2010,06,04,04,35,1004.50
2010,06,04,04,36,1004.50
2010,06,04,04,37,1004.50
2010,06,04,04,38,1004.50
2010,06,04,04,39,1004.44
2010,06,04,04,40,1004.44
2010,06,04,04,41,1004.40
2010,06,04,04,42,1004.47
2010,06,04,04,43,1004.44
2010,06,04,04,44,1004.47
2010,06,04,04,45,1004.44
2010,06,04,04,46,1004.44
2010,06,04,04,47,1004.44
2010,06,04,04,48,1004.44
2010,06,04,04,49,1004.47
2010,06,04,04,50,1004.50
2010,06,04,04,51,1004.54
2010,06,04,04,52,1004.50
2010,06,04,04,53,1004.50
2010,06,04,04,54,1004.54
2010,06,04,04,55,1004.54
2010,06,04,04,56,1004.54
2010,06,04,04,57,1004.54
2010,06,04,04,58,1004.50
2010,06,04,04,59,1004.54
2010,06,04,05,00,1004.54
2010,06,04,05,01,1004.54
2010,06,04,05,02,1004.50
2010,06,04,05,03,1004.54
2010,06,04,05,04,1004.54
2010,06,04,05,05,1004.50
2010,06,04,05,06,1004.50
2010,06,04,05,07,1004.54
2010,06,04,05,08,1004.54
2010,06,04,05,09,1004.54
2010,06,04,05,10,1004.57
2010,06,04,05,11,1004.54
2010,06,04,05,12,1004.54
2010,06,04,05,13,1004.50
2010,06,04,05,14,1004.54
2010,06,04,05,15,1004.57
2010,06,04,05,16,1004.57
2010,06,04,05,17,1004.57
2010,06,04,05,18,1004.54
2010,06,04,05,19,1004.54
2010,06,04,05,20,1004.47
2010,06,04,05,21,1004.50
2010,06,04,05,22,1004.50
2010,06,04,05,23,1004.50
2010,06,04,05,24,1004.50
2010,06,04,05,25,1004.54
2010,06,04,05,26,1004.50
2010,06,04,05,27,1004.54
2010,06,04,05,28,1004.54
2010,06,04,05,29,1004.57
2010,06,04,05,30,1004.54
2010,06,04,05,31,1004.57
2010,06,04,05,32,1004.50
2010,06,04,05,33,1004.54
2010,06,04,05,34,1004.54
2010,06,04,05,35,1004.54
2010,06,04,05,36,1004.57
2010,06,04,05,37,1004.54
2010,06,04,05,38,1004.61
2010,06,04,05,39,1004.61
2010,06,04,05,40,1004.61
2010,06,04,05,41,1004.54
2010,06,04,05,42,1004.64
2010,06,04,05,43,1004.61
2010,06,04,05,44,1004.61
2010,06,04,05,45,1004.61
2010,06,04,05,46,1004.64
2010,06,04,05,47,1004.64
2010,06,04,05,48,1004.67
2010,06,04,05,49,1004.67
2010,06,04,05,50,1004.67
2010,06,04,05,51,1004.71
2010,06,04,05,52,1004.71
2010,06,04,05,53,1004.71
2010,06,04,05,54,1004.64
2010,06,04,05,55,1004.71
2010,06,04,05,56,1004.74
2010,06,04,05,57,1004.74
2010,06,04,05,58,1004.74
2010,06,04,05,59,1004.81
2010,06,04,06,00,1004.74
2010,06,04,06,01,1004.74
2010,06,04,06,02,1004.78
2010,06,04,06,03,1004.74
2010,06,04,06,04,1004.74
2010,06,04,06,05,1004.81
2010,06,04,06,06,1004.84
2010,06,04,06,07,1004.81
2010,06,04,06,08,1004.84
2010,06,04,06,09,1004.88
2010,06,04,06,10,1004.84
2010,06,04,06,11,1004.81
2010,06,04,06,12,1004.88
2010,06,04,06,13,1004.88
2010,06,04,06,14,1004.88
2010,06,04,06,15,1004.91
2010,06,04,06,16,1004.91
2010,06,04,06,17,1004.95
2010,06,04,06,18,1004.95
2010,06,04,06,19,1004.91
2010,06,04,06,20,1004.88
2010,06,04,06,21,1004.95
2010,06,04,06,22,1004.91
2010,06,04,06,23,1004.91
2010,06,04,06,24,1004.91
2010,06,04,06,25,1004.95
2010,06,04,06,26,1004.98
2010,06,04,06,27,1004.98
2010,06,04,06,28,1004.98
2010,06,04,06,29,1004.91
2010,06,04,06,30,1004.98
2010,06,04,06,31,1005.01
2010,06,04,06,32,1005.01
2010,06,04,06,33,1004.98
2010,06,04,06,34,1005.05
2010,06,04,06,35,1005.01
2010,06,04,06,36,1005.05
2010,06,04,06,37,1005.11
2010,06,04,06,38,1005.08
2010,06,04,06,39,1005.08
2010,06,04,06,40,1005.08
2010,06,04,06,41,1005.08
2010,06,04,06,42,1005.05
2010,06,04,06,43,1005.11
2010,06,04,06,44,1005.08
2010,06,04,06,45,1005.08
2010,06,04,06,46,1005.11
2010,06,04,06,47,1005.15
2010,06,04,06,48,1005.11
2010,06,04,06,49,1005.15
2010,06,04,06,50,1005.15
2010,06,04,06,51,1005.22
2010,06,04,06,52,1005.18
2010,06,04,06,53,1005.18
2010,06,04,06,54,1005.22
2010,06,04,06,55,1005.22
2010,06,04,06,56,1005.25
2010,06,04,06,57,1005.22
2010,06,04,06,58,1005.25
2010,06,04,06,59,1005.22
2010,06,04,07,00,1005.22
2010,06,04,07,01,1005.25
2010,06,04,07,02,1005.25
2010,06,04,07,03,1005.25
2010,06,04,07,04,1005.28
2010,06,04,07,05,1005.32
2010,06,04,07,06,1005.32
2010,06,04,07,07,1005.32
2010,06,04,07,08,1005.35
2010,06,04,07,09,1005.35
2010,06,04,07,10,1005.39
2010,06,04,07,11,1005.35
2010,06,04,07,12,1005.39
2010,06,04,07,13,1005.39
2010,06,04,07,14,1005.42
2010,06,04,07,15,1005.39
2010,06,04,07,16,1005.39
2010,06,04,07,17,1005.32
2010,06,04,07,18,1005.35
2010,06,04,07,19,1005.32
2010,06,04,07,20,1005.35
2010,06,04,07,21,1005.35
2010,06,04,07,22,1005.35
2010,06,04,07,23,1005.39
2010,06,04,07,24,1005.39
2010,06,04,07,25,1005.35
2010,06,04,07,26,1005.39
2010,06,04,07,27,1005.39
2010,06,04,07,28,1005.35
2010,06,04,07,29,1005.42
2010,06,04,07,30,1005.42
2010,06,04,07,31,1005.42
2010,06,04,07,32,1005.52
2010,06,04,07,33,1005.52
2010,06,04,07,34,1005.52
2010,06,04,07,35,1005.55
2010,06,04,07,36,1005.55
2010,06,04,07,37,1005.55
2010,06,04,07,38,1005.55
2010,06,04,07,39,1005.55
2010,06,04,07,40,1005.59
2010,06,04,07,41,1005.59
2010,06,04,07,42,1005.62
2010,06,04,07,43,1005.69
2010,06,04,07,44,1005.66
2010,06,04,07,45,1005.72
2010,06,04,07,46,1005.72
2010,06,04,07,47,1005.69
2010,06,04,07,48,1005.69
2010,06,04,07,49,1005.69
2010,06,04,07,50,1005.69
2010,06,04,07,51,1005.72
2010,06,04,07,52,1005.69
2010,06,04,07,53,1005.72
2010,06,04,07,54,1005.79
2010,06,04,07,55,1005.76
2010,06,04,07,56,1005.69
2010,06,04,07,57,1005.76
2010,06,04,07,58,1005.79
2010,06,04,07,59,1005.79
2010,06,04,08,00,1005.79
2010,06,04,08,01,1005.79
2010,06,04,08,02,1005.83
2010,06,04,08,03,1005.83
2010,06,04,08,04,1005.83
2010,06,04,08,05,1005.83
2010,06,04,08,06,1005.83
2010,06,04,08,07,1005.86
2010,06,04,08,08,1005.86
2010,06,04,08,09,1005.89
2010,06,04,08,10,1005.89
2010,06,04,08,11,1005.93
2010,06,04,08,12,1005.96
2010,06,04,08,13,1005.93
2010,06,04,08,14,1005.93
2010,06,04,08,15,1005.96
2010,06,04,08,16,1005.96
2010,06,04,08,17,1006.03
2010,06,04,08,18,1006.03
2010,06,04,08,19,1006.03
2010,06,04,08,20,1006.06
2010,06,04,08,21,1006.10
2010,06,04,08,22,1006.10
2010,06,04,08,23,1006.10
2010,06,04,08,24,1006.10
2010,06,04,08,25,1006.10
2010,06,04,08,26,1006.13
2010,06,04,08,27,1006.10
2010,06,04,08,28,1006.16
2010,06,04,08,29,1006.20
2010,06,04,08,30,1006.13
2010,06,04,08,31,1006.16
2010,06,04,08,32,1006.10
2010,06,04,08,33,1006.16
2010,06,04,08,34,1006.13
2010,06,04,08,35,1006.13
2010,06,04,08,36,1006.20
2010,06,04,08,37,1006.16
2010,06,04,08,38,1006.20
2010,06,04,08,39,1006.20
2010,06,04,08,40,1006.16
2010,06,04,08,41,1006.23
2010,06,04,08,42,1006.30
2010,06,04,08,43,1006.30
2010,06,04,08,44,1006.33
2010,06,04,08,45,1006.30
2010,06,04,08,46,1006.33
2010,06,04,08,47,1006.33
2010,06,04,08,48,1006.37
2010,06,04,08,49,1006.33
2010,06,04,08,50,1006.37
2010,06,04,08,51,1006.40
2010,06,04,08,52,1006.40
2010,06,04,08,53,1006.37
2010,06,04,08,54,1006.37
2010,06,04,08,55,1006.37
2010,06,04,08,56,1006.37
2010,06,04,08,57,1006.40
2010,06,04,08,58,1006.37
2010,06,04,08,59,1006.37
2010,06,04,09,00,1006.40
2010,06,04,09,01,1006.41
2010,06,04,09,02,1006.50
2010,06,04,09,03,1006.47
2010,06,04,09,04,1006.54
2010,06,04,09,05,1006.50
2010,06,04,09,06,1006.47
2010,06,04,09,07,1006.47
2010,06,04,09,08,1006.50
2010,06,04,09,09,1006.54
2010,06,04,09,10,1006.47
2010,06,04,09,11,1006.50
2010,06,04,09,12,1006.54
2010,06,04,09,13,1006.54
2010,06,04,09,14,1006.57
2010,06,04,09,15,1006.57
2010,06,04,09,16,1006.57
2010,06,04,09,17,1006.64
2010,06,04,09,18,1006.60
2010,06,04,09,19,1006.60
2010,06,04,09,20,1006.64
2010,06,04,09,21,1006.67
2010,06,04,09,22,1006.67
2010,06,04,09,23,1006.71
2010,06,04,09,24,1006.67
2010,06,04,09,25,1006.74
2010,06,04,09,26,1006.71
2010,06,04,09,27,1006.77
2010,06,04,09,28,1006.74
2010,06,04,09,29,1006.81
2010,06,04,09,30,1006.81
2010,06,04,09,31,1006.77
2010,06,04,09,32,1006.84
2010,06,04,09,33,1006.84
2010,06,04,09,34,1006.88
2010,06,04,09,35,1006.88
2010,06,04,09,36,1006.91
2010,06,04,09,37,1006.91
2010,06,04,09,38,1006.88
2010,06,04,09,39,1006.98
2010,06,04,09,40,1006.91
2010,06,04,09,41,1006.98
2010,06,04,09,42,1006.94
2010,06,04,09,43,1006.98
2010,06,04,09,44,1007.01
2010,06,04,09,45,1006.98
2010,06,04,09,46,1007.01
2010,06,04,09,47,1006.98
2010,06,04,09,48,1007.01
2010,06,04,09,49,1006.94
2010,06,04,09,50,1006.98
2010,06,04,09,51,1006.98
2010,06,04,09,52,1007.01
2010,06,04,09,53,1007.01
2010,06,04,09,54,1007.04
2010,06,04,09,55,1007.04
2010,06,04,09,56,1007.08
2010,06,04,09,57,1007.08
2010,06,04,09,58,1007.04
2010,06,04,09,59,1007.11
2010,06,04,10,00,1007.11
2010,06,04,10,01,1007.15
2010,06,04,10,02,1007.11
2010,06,04,10,03,1007.15
2010,06,04,10,04,1007.11
2010,06,04,10,05,1007.18
2010,06,04,10,06,1007.15
2010,06,04,10,07,1007.18
2010,06,04,10,08,1007.21
2010,06,04,10,09,1007.18
2010,06,04,10,10,1007.25
2010,06,04,10,11,1007.21
2010,06,04,10,12,1007.21
2010,06,04,10,13,1007.21
2010,06,04,10,14,1007.28
2010,06,04,10,15,1007.25
2010,06,04,10,16,1007.25
2010,06,04,10,17,1007.25
2010,06,04,10,18,1007.28
2010,06,04,10,19,1007.28
2010,06,04,10,20,1007.28
2010,06,04,10,21,1007.32
2010,06,04,10,22,1007.26
2010,06,04,10,23,1007.35
2010,06,04,10,24,1007.28
2010,06,04,10,25,1007.28
2010,06,04,10,26,1007.28
2010,06,04,10,27,1007.35
2010,06,04,10,28,1007.32
2010,06,04,10,29,1007.32
2010,06,04,10,30,1007.32
2010,06,04,10,31,1007.32
2010,06,04,10,32,1007.32
2010,06,04,10,33,1007.35
2010,06,04,10,34,1007.35
2010,06,04,10,35,1007.32
2010,06,04,10,36,1007.35
2010,06,04,10,37,1007.32
2010,06,04,10,38,1007.35
2010,06,04,10,39,1007.35
2010,06,04,10,40,1007.38
2010,06,04,10,41,1007.42
2010,06,04,10,42,1007.45
2010,06,04,10,43,1007.38
2010,06,04,10,44,1007.48
2010,06,04,10,45,1007.48
2010,06,04,10,46,1007.48
2010,06,04,10,47,1007.48
2010,06,04,10,48,1007.52
2010,06,04,10,49,1007.52
2010,06,04,10,50,1007.59
2010,06,04,10,51,1007.55
2010,06,04,10,52,1007.59
2010,06,04,10,53,1007.62
2010,06,04,10,54,1007.59
2010,06,04,10,55,1007.62
2010,06,04,10,56,1007.65
2010,06,04,10,57,1007.62
2010,06,04,10,58,1007.69
2010,06,04,10,59,1007.69
2010,06,04,11,00,1007.76
2010,06,04,11,01,1007.72
2010,06,04,11,02,1007.76
2010,06,04,11,03,1007.72
2010,06,04,11,04,1007.79
2010,06,04,11,05,1007.82
2010,06,04,11,06,1007.82
2010,06,04,11,07,1007.86
2010,06,04,11,08,1007.89
2010,06,04,11,09,1007.93
2010,06,04,11,10,1007.96
2010,06,04,11,11,1007.96
2010,06,04,11,12,1007.99
2010,06,04,11,13,1007.99
2010,06,04,11,14,1008.13
2010,06,04,11,15,1008.06
2010,06,04,11,16,1008.13
2010,06,04,11,17,1008.13
2010,06,04,11,18,1008.16
2010,06,04,11,19,1008.20
2010,06,04,11,20,1008.23
2010,06,04,11,21,1008.23
2010,06,04,11,22,1008.23
2010,06,04,11,23,1008.30
2010,06,04,11,24,1008.30
2010,06,04,11,25,1008.33
2010,06,04,11,26,1008.30
2010,06,04,11,27,1008.33
2010,06,04,11,28,1008.40
2010,06,04,11,29,1008.43
2010,06,04,11,30,1008.40
2010,06,04,11,31,1008.43
2010,06,04,11,32,1008.43
2010,06,04,11,33,1008.43
2010,06,04,11,34,1008.50
2010,06,04,11,35,1008.53
2010,06,04,11,36,1008.53
2010,06,04,11,37,1008.57
2010,06,04,11,38,1008.60
2010,06,04,11,39,1008.64
2010,06,04,11,40,1008.57
2010,06,04,11,41,1008.60
2010,06,04,11,42,1008.57
2010,06,04,11,43,1008.60
2010,06,04,11,44,1008.60
2010,06,04,11,45,1008.64
2010,06,04,11,46,1008.67
2010,06,04,11,47,1008.70
2010,06,04,11,48,1008.74
2010,06,04,11,49,1008.74
2010,06,04,11,50,1008.77
2010,06,04,11,51,1008.84
2010,06,04,11,52,1008.81
2010,06,04,11,53,1008.84
2010,06,04,11,54,1008.87
2010,06,04,11,55,1008.84
2010,06,04,11,56,1008.87
2010,06,04,11,57,1008.84
2010,06,04,11,58,1008.87
2010,06,04,11,59,1008.87
2010,06,04,12,00,1008.87
2010,06,04,12,01,1008.87
2010,06,04,12,02,1008.91
2010,06,04,12,03,1008.87
2010,06,04,12,04,1008.87
2010,06,04,12,05,1008.91
2010,06,04,12,06,1008.94
2010,06,04,12,07,1008.94
2010,06,04,12,08,1008.94
2010,06,04,12,09,1008.97
2010,06,04,12,10,1008.97
2010,06,04,12,11,1008.97
2010,06,04,12,12,1009.01
2010,06,04,12,13,1009.01
2010,06,04,12,14,1009.01
2010,06,04,12,15,1009.04
2010,06,04,12,16,1009.04
2010,06,04,12,17,1009.04
2010,06,04,12,18,1009.04
2010,06,04,12,19,1009.04
2010,06,04,12,20,1009.01
2010,06,04,12,21,1009.11
2010,06,04,12,22,1009.04
2010,06,04,12,23,1009.08
2010,06,04,12,24,1009.08
2010,06,04,12,25,1009.08
2010,06,04,12,26,1009.04
2010,06,04,12,27,1009.08
2010,06,04,12,28,1009.01
2010,06,04,12,29,1009.08
2010,06,04,12,30,1009.08
2010,06,04,12,31,1009.08
2010,06,04,12,32,1009.04
2010,06,04,12,33,1009.08
2010,06,04,12,34,1009.08
2010,06,04,12,35,1009.11
2010,06,04,12,36,1009.08
2010,06,04,12,37,1009.08
2010,06,04,12,38,1009.11
2010,06,04,12,39,1009.11
2010,06,04,12,40,1009.11
2010,06,04,12,41,1009.14
2010,06,04,12,42,1009.18
2010,06,04,12,43,1009.18
2010,06,04,12,44,1009.18
2010,06,04,12,45,1009.25
2010,06,04,12,46,1009.28
2010,06,04,12,47,1009.28
2010,06,04,12,48,1009.28
2010,06,04,12,49,1009.21
2010,06,04,12,50,1009.31
2010,06,04,12,51,1009.31
2010,06,04,12,52,1009.31
2010,06,04,12,53,1009.38
2010,06,04,12,54,1009.38
2010,06,04,12,55,1009.42
2010,06,04,12,56,1009.38
2010,06,04,12,57,1009.42
2010,06,04,12,58,1009.38
2010,06,04,12,59,1009.42
2010,06,04,13,00,1009.45
2010,06,04,13,01,1009.45
2010,06,04,13,02,1009.45
2010,06,04,13,03,1009.42
2010,06,04,13,04,1009.45
2010,06,04,13,05,1009.38
2010,06,04,13,06,1009.42
2010,06,04,13,07,1009.42
2010,06,04,13,08,1009.45
2010,06,04,13,09,1009.45
2010,06,04,13,10,1009.42
2010,06,04,13,11,1009.45
2010,06,04,13,12,1009.35
2010,06,04,13,13,1009.38
2010,06,04,13,14,1009.42
2010,06,04,13,15,1009.38
2010,06,04,13,16,1009.45
2010,06,04,13,17,1009.38
2010,06,04,13,18,1009.45
2010,06,04,13,19,1009.42
2010,06,04,13,20,1009.42
2010,06,04,13,21,1009.45
2010,06,04,13,22,1009.45
2010,06,04,13,23,1009.52
2010,06,04,13,24,1009.55
2010,06,04,13,25,1009.52
2010,06,04,13,26,1009.55
2010,06,04,13,27,1009.55
2010,06,04,13,28,1009.58
2010,06,04,13,29,1009.55
2010,06,04,13,30,1009.55
2010,06,04,13,31,1009.62
2010,06,04,13,32,1009.65
2010,06,04,13,33,1009.65
2010,06,04,13,34,1009.66
2010,06,04,13,35,1009.75
2010,06,04,13,36,1009.75
2010,06,04,13,37,1009.75
2010,06,04,13,38,1009.82
2010,06,04,13,39,1009.82
2010,06,04,13,40,1009.89
2010,06,04,13,41,1009.86
2010,06,04,13,42,1009.89
2010,06,04,13,43,1009.89
2010,06,04,13,44,1009.89
2010,06,04,13,45,1009.86
2010,06,04,13,46,1009.89
2010,06,04,13,47,1009.86
2010,06,04,13,48,1009.86
2010,06,04,13,49,1009.89
2010,06,04,13,50,1009.92
2010,06,04,13,51,1009.96
2010,06,04,13,52,1009.96
2010,06,04,13,53,1010.02
2010,06,04,13,54,1009.99
2010,06,04,13,55,1010.02
2010,06,04,13,56,1010.02
2010,06,04,13,57,1009.96
2010,06,04,13,58,1010.02
2010,06,04,13,59,1010.02
2010,06,04,14,00,1010.02
2010,06,04,14,01,1010.02
2010,06,04,14,02,1010.06
2010,06,04,14,03,1010.06
2010,06,04,14,04,1010.02
2010,06,04,14,05,1010.06
2010,06,04,14,06,1010.06
2010,06,04,14,07,1010.09
2010,06,04,14,08,1010.06
2010,06,04,14,09,1010.09
2010,06,04,14,10,1010.13
2010,06,04,14,11,1010.09
2010,06,04,14,12,1010.09
2010,06,04,14,13,1010.09
2010,06,04,14,14,1010.09
2010,06,04,14,15,1010.09
2010,06,04,14,16,1010.13
2010,06,04,14,17,1010.09
2010,06,04,14,18,1010.09
2010,06,04,14,19,1010.16
2010,06,04,14,20,1010.16
2010,06,04,14,21,1010.16
2010,06,04,14,22,1010.23
2010,06,04,14,23,1010.13
2010,06,04,14,24,1010.16
2010,06,04,14,25,1010.26
2010,06,04,14,26,1010.23
2010,06,04,14,27,1010.26
2010,06,04,14,28,1010.30
2010,06,04,14,29,1010.30
2010,06,04,14,30,1010.36
2010,06,04,14,31,1010.43
2010,06,04,14,32,1010.46
2010,06,04,14,33,1010.50
2010,06,04,14,34,1010.43
2010,06,04,14,35,1010.43
2010,06,04,14,36,1010.40
2010,06,04,14,37,1010.46
2010,06,04,14,38,1010.46
2010,06,04,14,39,1010.46
2010,06,04,14,40,1010.43
2010,06,04,14,41,1010.50
2010,06,04,14,42,1010.50
2010,06,04,14,43,1010.53
2010,06,04,14,44,1010.53
2010,06,04,14,45,1010.60
2010,06,04,14,46,1010.57
2010,06,04,14,47,1010.60
2010,06,04,14,48,1010.60
2010,06,04,14,49,1010.67
2010,06,04,14,50,1010.67
2010,06,04,14,51,1010.67
2010,06,04,14,52,1010.70
2010,06,04,14,53,1010.74
2010,06,04,14,54,1010.77
2010,06,04,14,55,1010.74
2010,06,04,14,56,1010.70
2010,06,04,14,57,1010.70
2010,06,04,14,58,1010.74
2010,06,04,14,59,1010.84
2010,06,04,15,00,1010.84
2010,06,04,15,01,1010.87
2010,06,04,15,02,1010.91
2010,06,04,15,03,1010.87
2010,06,04,15,04,1010.87
2010,06,04,15,05,1010.87
2010,06,04,15,06,1010.94
2010,06,04,15,07,1010.97
2010,06,04,15,08,1010.94
2010,06,04,15,09,1010.94
2010,06,04,15,10,1010.94
2010,06,04,15,11,1010.97
2010,06,04,15,12,1010.97
2010,06,04,15,13,1010.97
2010,06,04,15,14,1010.97
2010,06,04,15,15,1010.97
2010,06,04,15,16,1011.07
2010,06,04,15,17,1011.04
2010,06,04,15,18,1011.04
2010,06,04,15,19,1011.01
2010,06,04,15,20,1011.07
2010,06,04,15,21,1011.14
2010,06,04,15,22,1011.11
2010,06,04,15,23,1011.07
2010,06,04,15,24,1011.14
2010,06,04,15,25,1011.14
2010,06,04,15,26,1011.14
2010,06,04,15,27,1011.18
2010,06,04,15,28,1011.18
2010,06,04,15,29,1011.14
2010,06,04,15,30,1011.18
2010,06,04,15,31,1011.21
2010,06,04,15,32,1011.21
2010,06,04,15,33,1011.21
2010,06,04,15,34,1011.21
2010,06,04,15,35,1011.24
2010,06,04,15,36,1011.24
2010,06,04,15,37,1011.28
2010,06,04,15,38,1011.24
2010,06,04,15,39,1011.28
2010,06,04,15,40,1011.28
2010,06,04,15,41,1011.31
2010,06,04,15,42,1011.35
2010,06,04,15,43,1011.31
2010,06,04,15,44,1011.38
2010,06,04,15,45,1011.35
2010,06,04,15,46,1011.38
2010,06,04,15,47,1011.41
2010,06,04,15,48,1011.38
2010,06,04,15,49,1011.41
2010,06,04,15,50,1011.41
2010,06,04,15,51,1011.48
2010,06,04,15,52,1011.45
2010,06,04,15,53,1011.41
2010,06,04,15,54,1011.48
2010,06,04,15,55,1011.41
2010,06,04,15,56,1011.45